Time,TemperatureF,DewpointF,PressureIn,WindDirection,WindDirectionDegrees,WindSpeedMPH,WindSpeedGustMPH,Humidity,HourlyPrecipIn,Conditions,Clouds,dailyrainin,SoftwareType,DateUTC
2013-09-03 00:14:00,60.5,57.2,30.22,WSW,253,7.0,13.0,89,0.00,CLR,,0.00,WeatherDisplay:10.37,2013-09-02 23:14:00,
2013-09-03 00:29:00,60.5,57.6,30.22,West,260,9.0,16.0,90,0.00,CLR,,0.00,WeatherDisplay:10.37,2013-09-02 23:29:00,
2013-09-03 00:44:00,60.4,57.5,30.22,West,259,8.0,14.0,90,0.00,CLR,,0.00,WeatherDisplay:10.37,2013-09-02 23:44:00,
2013-09-03 00:59:00,60.4,57.5,30.22,WSW,254,7.0,14.0,90,0.00,CLR,,0.00,WeatherDisplay:10.37,2013-09-02 23:59:00,
2013-09-03 01:14:00,60.5,57.6,30.22,WSW,253,7.0,15.0,90,0.00,CLR,,0.00,WeatherDisplay:10.37,2013-09-03 00:14:00,
2013-09-03 01:29:00,60.5,57.6,30.22,West,260,9.0,15.0,90,0.00,CLR,,0.00,WeatherDisplay:10.37,2013-09-03 00:29:00,
2013-09-03 01:44:00,60.5,57.6,30.22,West,260,9.0,17.0,90,0.00,CLR,,0.00,WeatherDisplay:10.37,2013-09-03 00:44:00,
2013-09-03 01:59:00,60.4,57.5,30.22,West,261,8.0,20.0,90,0.00,CLR,,0.00,WeatherDisplay:10.37,2013-09-03 00:59:00,
2013-09-03 02:14:00,60.4,57.8,30.22,West,260,9.0,20.0,91,0.00,CLR,,0.00,WeatherDisplay:10.37,2013-09-03 01:14:00,
2013-09-03 02:29:00,60.5,57.6,30.22,West,262,10.0,20.0,90,0.00,CLR,,0.00,WeatherDisplay:10.37,2013-09-03 01:29:00,
2013-09-03 02:44:00,60.6,57.9,30.22,West,263,9.0,16.0,91,0.00,CLR,,0.00,WeatherDisplay:10.37,2013-09-03 01:44:00,
2013-09-03 02:59:00,60.4,57.8,30.22,WSW,252,3.0,16.0,91,0.00,CLR,,0.00,WeatherDisplay:10.37,2013-09-03 01:59:00,
2013-09-03 03:14:00,60.5,57.9,30.22,SW,235,6.0,12.0,91,0.00,CLR,,0.00,WeatherDisplay:10.37,2013-09-03 02:14:00,
2013-09-03 03:29:00,60.6,57.9,30.22,WSW,243,5.0,13.0,91,0.00,CLR,,0.00,WeatherDisplay:10.37,2013-09-03 02:29:00,
2013-09-03 03:44:00,60.6,58.0,30.22,WSW,251,6.0,12.0,91,0.00,CLR,,0.00,WeatherDisplay:10.37,2013-09-03 02:44:00,
2013-09-03 03:59:00,60.8,58.1,30.22,WSW,253,8.0,15.0,91,0.00,CLR,,0.00,WeatherDisplay:10.37,2013-09-03 02:59:00,
2013-09-03 04:14:00,60.9,58.3,30.22,WSW,258,7.0,14.0,91,0.00,CLR,,0.00,WeatherDisplay:10.37,2013-09-03 03:14:00,
2013-09-03 04:29:00,60.8,58.2,30.22,West,263,8.0,14.0,91,0.00,CLR,,0.00,WeatherDisplay:10.37,2013-09-03 03:29:00,
2013-09-03 04:44:00,60.7,58.4,30.21,WSW,257,7.0,18.0,92,0.00,CLR,,0.00,WeatherDisplay:10.37,2013-09-03 03:44:00,
2013-09-03 04:59:00,60.5,58.2,30.22,West,262,6.0,15.0,92,0.00,CLR,,0.00,WeatherDisplay:10.37,2013-09-03 03:59:00,
2013-09-03 05:14:00,60.6,58.3,30.21,West,263,10.0,15.0,92,0.00,CLR,,0.00,WeatherDisplay:10.37,2013-09-03 04:14:00,
2013-09-03 05:29:00,60.8,58.5,30.21,West,262,8.0,16.0,92,0.00,CLR,,0.00,WeatherDisplay:10.37,2013-09-03 04:29:00,
2013-09-03 05:44:00,60.7,58.4,30.22,West,263,8.0,15.0,92,0.00,CLR,,0.00,WeatherDisplay:10.37,2013-09-03 04:44:00,
2013-09-03 05:59:00,60.8,58.5,30.22,West,273,7.0,14.0,92,0.00,CLR,,0.00,WeatherDisplay:10.37,2013-09-03 04:59:00,
2013-09-03 06:14:00,60.9,58.6,30.22,West,268,7.0,13.0,92,0.00,CLR,,0.00,WeatherDisplay:10.37,2013-09-03 05:14:00,
2013-09-03 06:29:00,60.6,58.6,30.22,West,263,9.0,15.0,93,0.00,CLR,,0.00,WeatherDisplay:10.37,2013-09-03 05:29:00,
2013-09-03 06:44:00,60.6,58.6,30.22,West,264,7.0,13.0,93,0.00,CLR,,0.00,WeatherDisplay:10.37,2013-09-03 05:44:00,
2013-09-03 06:59:00,60.4,58.7,30.22,West,263,7.0,12.0,94,0.00,CLR,,0.00,WeatherDisplay:10.37,2013-09-03 05:59:00,
2013-09-03 07:14:00,60.7,58.7,30.23,West,266,5.0,10.0,93,0.00,CLR,,0.00,WeatherDisplay:10.37,2013-09-03 06:14:00,
2013-09-03 07:29:00,60.8,58.8,30.23,West,264,5.0,12.0,93,0.00,CLR,,0.00,WeatherDisplay:10.37,2013-09-03 06:29:00,
2013-09-03 07:44:00,60.8,58.8,30.23,West,267,7.0,12.0,93,0.00,CLR,,0.00,WeatherDisplay:10.37,2013-09-03 06:44:00,
2013-09-03 07:59:00,61.0,58.7,30.23,West,263,8.0,12.0,92,0.00,CLR,,0.00,WeatherDisplay:10.37,2013-09-03 06:59:00,
2013-09-03 08:14:00,61.4,58.7,30.23,West,266,7.0,12.0,91,0.00,CLR,,0.00,WeatherDisplay:10.37,2013-09-03 07:14:00,
2013-09-03 08:29:00,61.7,58.7,30.23,West,268,6.0,13.0,90,0.00,CLR,,0.00,WeatherDisplay:10.37,2013-09-03 07:29:00,
2013-09-03 08:44:00,61.8,58.8,30.23,West,267,6.0,12.0,90,0.00,CLR,,0.00,WeatherDisplay:10.37,2013-09-03 07:44:00,
2013-09-03 08:59:00,62.0,58.7,30.23,West,265,8.0,13.0,89,0.00,CLR,,0.00,WeatherDisplay:10.37,2013-09-03 07:59:00,
2013-09-03 09:14:00,62.5,58.9,30.23,West,260,5.0,14.0,88,0.00,CLR,,0.00,WeatherDisplay:10.37,2013-09-03 08:14:00,
2013-09-03 09:29:00,63.0,58.7,30.23,WSW,251,9.0,13.0,86,0.00,CLR,,0.00,WeatherDisplay:10.37,2013-09-03 08:29:00,
2013-09-03 09:44:00,63.0,58.8,30.23,WSW,257,9.0,15.0,86,0.00,CLR,,0.00,WeatherDisplay:10.37,2013-09-03 08:44:00,
2013-09-03 09:59:00,63.7,59.1,30.24,WSW,257,8.0,17.0,85,0.00,CLR,,0.00,WeatherDisplay:10.37,2013-09-03 08:59:00,
2013-09-03 10:14:00,64.1,59.2,30.23,West,263,10.0,16.0,84,0.00,CLR,,0.00,WeatherDisplay:10.37,2013-09-03 09:14:00,
2013-09-03 10:29:00,64.8,58.8,30.23,West,266,9.0,15.0,81,0.00,CLR,,0.00,WeatherDisplay:10.37,2013-09-03 09:29:00,
2013-09-03 10:44:00,65.0,58.7,30.23,WSW,258,7.0,15.0,80,0.00,CLR,,0.00,WeatherDisplay:10.37,2013-09-03 09:44:00,
2013-09-03 10:59:00,65.8,59.1,30.23,WSW,247,7.0,15.0,79,0.00,CLR,,0.00,WeatherDisplay:10.37,2013-09-03 09:59:00,
2013-09-03 11:14:00,65.3,59.0,30.23,West,265,8.0,16.0,80,0.00,CLR,,0.00,WeatherDisplay:10.37,2013-09-03 10:14:00,
2013-09-03 11:29:00,65.1,59.1,30.23,WSW,258,7.0,12.0,81,0.00,CLR,,0.00,WeatherDisplay:10.37,2013-09-03 10:29:00,
2013-09-03 11:44:00,64.6,58.7,30.23,West,263,8.0,16.0,81,0.00,CLR,,0.00,WeatherDisplay:10.37,2013-09-03 10:44:00,
2013-09-03 11:59:00,64.9,58.9,30.23,WSW,249,5.0,16.0,81,0.00,CLR,,0.00,WeatherDisplay:10.37,2013-09-03 10:59:00,
2013-09-03 12:14:00,65.2,58.9,30.23,WSW,245,5.0,10.0,80,0.00,CLR,,0.00,WeatherDisplay:10.37,2013-09-03 11:14:00,
2013-09-03 12:29:00,65.2,58.9,30.23,WSW,254,5.0,14.0,80,0.00,CLR,,0.00,WeatherDisplay:10.37,2013-09-03 11:29:00,
2013-09-03 12:44:00,66.0,59.3,30.22,SW,236,5.0,12.0,79,0.00,CLR,,0.00,WeatherDisplay:10.37,2013-09-03 11:44:00,
2013-09-03 12:59:00,66.4,58.6,30.21,WSW,239,6.0,12.0,76,0.00,CLR,,0.00,WeatherDisplay:10.37,2013-09-03 11:59:00,
2013-09-03 13:14:00,67.6,58.6,30.21,WSW,237,9.0,14.0,73,0.00,CLR,,0.00,WeatherDisplay:10.37,2013-09-03 12:14:00,
2013-09-03 13:29:00,68.5,59.1,30.21,West,261,6.0,12.0,72,0.00,CLR,,0.00,WeatherDisplay:10.37,2013-09-03 12:29:00,
2013-09-03 13:44:00,68.9,57.9,30.21,West,262,9.0,15.0,68,0.00,CLR,,0.00,WeatherDisplay:10.37,2013-09-03 12:44:00,
2013-09-03 13:59:00,68.9,58.3,30.20,West,261,7.0,13.0,69,0.00,CLR,,0.00,WeatherDisplay:10.37,2013-09-03 12:59:00,
2013-09-03 14:14:00,70.1,57.8,30.20,WSW,257,8.0,15.0,65,0.00,CLR,,0.00,WeatherDisplay:10.37,2013-09-03 13:14:00,
2013-09-03 14:29:00,69.9,57.6,30.19,West,265,8.0,20.0,65,0.00,CLR,,0.00,WeatherDisplay:10.37,2013-09-03 13:29:00,
2013-09-03 14:44:00,69.9,57.6,30.19,West,271,7.0,15.0,65,0.00,CLR,,0.00,WeatherDisplay:10.37,2013-09-03 13:44:00,
2013-09-03 14:59:00,69.7,57.9,30.19,West,279,10.0,16.0,66,0.00,CLR,,0.00,WeatherDisplay:10.37,2013-09-03 13:59:00,
2013-09-03 15:14:00,69.4,58.4,30.19,West,275,9.0,18.0,68,0.00,CLR,,0.00,WeatherDisplay:10.37,2013-09-03 14:14:00,
2013-09-03 15:29:00,68.9,57.9,30.19,West,275,12.0,18.0,68,0.00,CLR,,0.00,WeatherDisplay:10.37,2013-09-03 14:29:00,
2013-09-03 15:44:00,69.0,58.4,30.18,West,278,9.0,18.0,69,0.00,CLR,,0.00,WeatherDisplay:10.37,2013-09-03 14:44:00,
2013-09-03 15:59:00,68.7,57.7,30.19,West,276,9.0,18.0,68,0.00,CLR,,0.00,WeatherDisplay:10.37,2013-09-03 14:59:00,
2013-09-03 16:14:00,67.6,57.1,30.19,West,272,10.0,20.0,69,0.00,CLR,,0.00,WeatherDisplay:10.37,2013-09-03 15:14:00,
2013-09-03 16:29:00,67.5,55.3,30.19,West,273,15.0,21.0,65,0.00,CLR,,0.00,WeatherDisplay:10.37,2013-09-03 15:29:00,
2013-09-03 16:44:00,67.5,54.0,30.19,West,272,14.0,20.0,62,0.00,CLR,,0.00,WeatherDisplay:10.37,2013-09-03 15:44:00,
2013-09-03 16:59:00,67.4,53.9,30.18,West,276,12.0,20.0,62,0.00,CLR,,0.00,WeatherDisplay:10.37,2013-09-03 15:59:00,
2013-09-03 17:14:00,67.3,54.2,30.18,West,266,12.0,23.0,63,0.00,CLR,,0.00,WeatherDisplay:10.37,2013-09-03 16:14:00,
2013-09-03 17:29:00,67.4,54.4,30.18,West,274,10.0,17.0,63,0.00,CLR,,0.00,WeatherDisplay:10.37,2013-09-03 16:29:00,
2013-09-03 17:44:00,67.5,54.9,30.18,West,265,8.0,18.0,64,0.00,CLR,,0.00,WeatherDisplay:10.37,2013-09-03 16:44:00,
2013-09-03 17:59:00,67.0,54.9,30.18,West,266,10.0,17.0,65,0.00,CLR,,0.00,WeatherDisplay:10.37,2013-09-03 16:59:00,
2013-09-03 18:14:00,66.7,55.0,30.18,West,272,10.0,17.0,66,0.00,CLR,,0.00,WeatherDisplay:10.37,2013-09-03 17:14:00,
2013-09-03 18:29:00,66.2,54.5,30.17,West,274,9.0,14.0,66,0.00,CLR,,0.00,WeatherDisplay:10.37,2013-09-03 17:29:00,
2013-09-03 18:44:00,66.2,55.3,30.17,West,269,8.0,14.0,68,0.00,CLR,,0.00,WeatherDisplay:10.37,2013-09-03 17:44:00,
2013-09-03 18:59:00,65.9,55.8,30.17,West,264,8.0,14.0,70,0.00,CLR,,0.00,WeatherDisplay:10.37,2013-09-03 17:59:00,
2013-09-03 19:14:00,64.7,56.2,30.17,West,267,8.0,15.0,74,0.00,CLR,,0.00,WeatherDisplay:10.37,2013-09-03 18:14:00,
2013-09-03 19:29:00,64.2,56.4,30.17,West,269,7.0,14.0,76,0.00,CLR,,0.00,WeatherDisplay:10.37,2013-09-03 18:29:00,
2013-09-03 19:44:00,63.9,55.8,30.18,West,269,6.0,13.0,75,0.00,CLR,,0.00,WeatherDisplay:10.37,2013-09-03 18:44:00,
2013-09-03 19:59:00,63.5,55.8,30.18,West,265,6.0,13.0,76,0.00,CLR,,0.00,WeatherDisplay:10.37,2013-09-03 18:59:00,
2013-09-03 20:14:00,63.0,55.3,30.18,West,262,5.0,12.0,76,0.00,CLR,,0.00,WeatherDisplay:10.37,2013-09-03 19:14:00,
2013-09-03 20:29:00,62.1,55.2,30.19,West,262,3.0,8.0,78,0.00,CLR,,0.00,WeatherDisplay:10.37,2013-09-03 19:29:00,
2013-09-03 20:44:00,61.7,55.1,30.19,WSW,253,2.0,5.0,79,0.00,CLR,,0.00,WeatherDisplay:10.37,2013-09-03 19:44:00,
2013-09-03 20:59:00,61.1,55.2,30.19,WSW,239,3.0,7.0,81,0.00,CLR,,0.00,WeatherDisplay:10.37,2013-09-03 19:59:00,
2013-09-03 21:14:00,60.6,55.1,30.19,WSW,237,2.0,8.0,82,0.00,CLR,,0.00,WeatherDisplay:10.37,2013-09-03 20:14:00,
2013-09-03 21:29:00,60.5,55.3,30.19,SW,232,3.0,7.0,83,0.00,CLR,,0.00,WeatherDisplay:10.37,2013-09-03 20:29:00,
2013-09-03 21:44:00,60.1,55.2,30.18,SW,232,5.0,8.0,84,0.00,CLR,,0.00,WeatherDisplay:10.37,2013-09-03 20:44:00,
2013-09-03 21:59:00,60.1,54.9,30.19,SW,234,3.0,10.0,83,0.00,CLR,,0.00,WeatherDisplay:10.37,2013-09-03 20:59:00,
2013-09-03 22:14:00,59.8,54.6,30.19,WSW,241,2.0,12.0,83,0.00,CLR,,0.00,WeatherDisplay:10.37,2013-09-03 21:14:00,
2013-09-03 22:29:00,59.4,54.6,30.18,WSW,239,3.0,10.0,84,0.00,CLR,,0.00,WeatherDisplay:10.37,2013-09-03 21:29:00,
2013-09-03 22:44:00,59.1,54.6,30.18,SW,228,3.0,7.0,85,0.00,CLR,,0.00,WeatherDisplay:10.37,2013-09-03 21:44:00,
2013-09-03 22:59:00,58.6,54.4,30.18,WSW,237,3.0,7.0,86,0.00,CLR,,0.00,WeatherDisplay:10.37,2013-09-03 21:59:00,
2013-09-03 23:14:00,58.1,53.9,30.18,WSW,248,2.0,7.0,86,0.00,CLR,,0.00,WeatherDisplay:10.37,2013-09-03 22:14:00,
2013-09-03 23:29:00,57.8,54.0,30.17,WSW,241,5.0,8.0,87,0.00,CLR,,0.00,WeatherDisplay:10.37,2013-09-03 22:29:00,
2013-09-03 23:44:00,57.4,53.6,30.17,WSW,255,3.0,9.0,87,0.00,CLR,,0.00,WeatherDisplay:10.37,2013-09-03 22:44:00,
2013-09-03 23:59:00,57.1,53.3,30.17,WSW,255,3.0,7.0,87,0.00,CLR,,0.00,WeatherDisplay:10.37,2013-09-03 22:59:00,